[[{"header":{"parameterUnit":"m.s-1","parameterCategory":1,"la1":30.2992,"la2":30.254,"lo1":-89.0895,"lo2":-89.0443,"dy":0.0025,"dx":0.0025,"nx":19,"ny":19,"refTime":"2026-05-07T09:00:00:Z","depth":0,"parameterNumber":2,"parameterNumberName":"U-component_of_WINDS"},"data":[0,0,0,0.1671,0.1673,0.1816,0.1816,0.2006,0.2008,0,0,0,0,0,0,0,0,0,0,0,0.1626,0.1627,0.167,0.1674,0.1816,0.1816,0.2006,0.2008,0,0,0,0,0,0,0,0,0,0,0,0.1625,0.1627,0.1628,0.1674,0.1816,0.1816,0.2006,0.1897,0,0,0,0,0,0,0,0,0,0,0.1759,0.1712,0.1626,0.1628,0.1675,0.1815,0.1817,0.1892,0.1904,0.1943,0,0.1971,0,0.1992,0.2021,0.2021,0,0,0,0.1677,0.1702,0.1743,0.1628,0.1676,0.1815,0.1753,0.1899,0.1912,0.1959,0.1973,0.1981,0.1995,0.2022,0.2023,0.2226,0.2227,0,0,0.1669,0.1651,0.1733,0.1751,0.1722,0.1748,0.1757,0.1907,0.1924,0.1974,0.1985,0.1998,0.2023,0.2025,0.2225,0.2226,0,0,0,0.1645,0.1645,0.1682,0.1743,0.1768,0.1752,0.1762,0.1917,0.193,0.1987,0.2001,0.2024,0.2027,0.2224,0.2226,0.2248,0,0,0,0.164,0.1631,0.1679,0.1669,0.1765,0.1843,0.1769,0.192,0.1937,0.2,0.2024,0.2028,0.2223,0.2225,0.2245,0.2263,0,0,0,0.1618,0.1628,0.1647,0.1668,0.1727,0.1841,0.1863,0.1924,0.1946,0.2021,0.2029,0.2223,0.2225,0.2243,0.2259,0.2315,0,0,0,0.159,0.1663,0.1647,0.1736,0.1726,0.185,0.1862,0.1956,0.2023,0.2025,0.2224,0.2226,0.2242,0.2256,0.2312,0.2361,0.2377,0,0,0.1673,0.1673,0.1727,0.1717,0.1839,0.183,0.1959,0.204,0.2066,0.2173,0.2179,0.2246,0.2259,0.2314,0.2473,0.2486,0,0,0,0.1748,0.1787,0.1823,0.1885,0.1946,0.2005,0.2066,0.2098,0.219,0.2114,0.228,0.2288,0.2322,0.2346,0.2358,0.2391,0.2235,0.2234,0.2234,0.1841,0.1869,0.1963,0.2011,0.2071,0.2137,0.2193,0.2248,0.2258,0.2297,0.233,0.2422,0.245,0.2459,0.2493,0.2355,0.2355,0.2355,0.2355,0.197,0.2032,0.2047,0.2144,0.2177,0.2261,0.2332,0.2338,0.2427,0.2398,0.2429,0.2399,0.2472,0.2505,0.2357,0.2357,0.2356,0.2356,0.2356,0.2037,0.2072,0.2107,0.2205,0.2278,0.2326,0.2411,0.2438,0.2465,0.2495,0.2538,0.2538,0.2546,0.2513,0.2513,0.2513,0.2514,0.2514,0.2514,0.2094,0.2133,0.2198,0.2274,0.2321,0.2388,0.246,0.251,0.2573,0.2587,0.2588,0.2601,0.2471,0.2441,0.2519,0.2519,0.2518,0.2517,0.2517,0.222,0.2197,0.2298,0.2345,0.2442,0.2518,0.2551,0.2652,0.2698,0.2742,0.2749,0.2647,0.265,0.2641,0.2617,0.2737,0.2737,0.2737,0.2737,0.228,0.2283,0.2397,0.2472,0.255,0.2592,0.2717,0.2778,0.2839,0.2871,0.2858,0.2827,0.2816,0.2826,0.2814,0.2792,0.2953,0.2953,0.2954,0.2363,0.2376,0.2472,0.2526,0.2605,0.2676,0.2797,0.2891,0.2955,0.2963,0.29,0.2891,0.2841,0.2821,0.2829,0.2808,0.2768,0,0]},{"header":{"parameterUnit":"m.s-1","parameterCategory":1,"la1":30.2992,"la2":30.254,"lo1":-89.0895,"lo2":-89.0443,"dy":0.0025,"dx":0.0025,"nx":19,"ny":19,"refTime":"2026-05-07T09:00:00:Z","depth":0,"parameterNumber":3,"parameterNumberName":"V-component_of_WINDS"},"data":[0,0,0,-3.2753,-3.2751,-3.2667,-3.2667,-3.2568,-3.2567,0,0,0,0,0,0,0,0,0,0,0,-3.2788,-3.2788,-3.2753,-3.2751,-3.2667,-3.2667,-3.2568,-3.2567,0,0,0,0,0,0,0,0,0,0,0,-3.2789,-3.2788,-3.2788,-3.2751,-3.2667,-3.2667,-3.2568,-3.2627,0,0,0,0,0,0,0,0,0,0,-3.2707,-3.2752,-3.2788,-3.2788,-3.275,-3.2667,-3.2667,-3.263,-3.2623,-3.2611,0,-3.2608,0,-3.2586,-3.2561,-3.2561,0,0,0,-3.2742,-3.2757,-3.2725,-3.2788,-3.275,-3.2668,-3.2702,-3.2626,-3.2619,-3.2603,-3.2606,-3.2602,-3.2584,-3.2561,-3.256,-3.2527,-3.2527,0,0,-3.2747,-3.2778,-3.273,-3.2721,-3.274,-3.2705,-3.27,-3.2622,-3.2626,-3.2606,-3.2599,-3.2583,-3.256,-3.2559,-3.2527,-3.2527,0,0,0,-3.2766,-3.2782,-3.2751,-3.2726,-3.271,-3.2703,-3.2697,-3.2629,-3.2616,-3.2598,-3.2581,-3.256,-3.2559,-3.2527,-3.2527,-3.2572,0,0,0,-3.2769,-3.2793,-3.2754,-3.2772,-3.2712,-3.267,-3.2707,-3.2622,-3.2612,-3.2582,-3.256,-3.2558,-3.2526,-3.2527,-3.257,-3.2587,0,0,0,-3.279,-3.2796,-3.2788,-3.2774,-3.274,-3.267,-3.2653,-3.2619,-3.2602,-3.2561,-3.2558,-3.2526,-3.2527,-3.2568,-3.2585,-3.2586,0,0,0,-3.2821,-3.2829,-3.2789,-3.2789,-3.2741,-3.27,-3.2653,-3.262,-3.259,-3.2559,-3.2526,-3.2527,-3.2568,-3.2583,-3.2585,-3.2594,-3.2601,0,0,-3.2848,-3.2833,-3.2831,-3.2792,-3.2768,-3.271,-3.2689,-3.263,-3.2595,-3.255,-3.2549,-3.257,-3.2584,-3.2586,-3.263,-3.2636,0,0,0,-3.285,-3.2848,-3.2835,-3.2809,-3.2765,-3.2727,-3.2668,-3.2645,-3.2605,-3.2581,-3.2571,-3.2578,-3.2577,-3.258,-3.2585,-3.2581,-3.253,-3.253,-3.253,-3.2933,-3.2889,-3.2881,-3.2826,-3.28,-3.2737,-3.271,-3.2667,-3.263,-3.2628,-3.2615,-3.2647,-3.2652,-3.2655,-3.2652,-3.2616,-3.2616,-3.2616,-3.2616,-3.2967,-3.2957,-3.2905,-3.2879,-3.283,-3.2805,-3.2741,-3.2715,-3.2681,-3.2655,-3.2652,-3.2628,-3.2664,-3.2658,-3.2619,-3.2619,-3.2618,-3.2618,-3.2618,-3.3016,-3.3003,-3.2976,-3.2931,-3.2899,-3.284,-3.281,-3.2765,-3.2723,-3.272,-3.2699,-3.2698,-3.269,-3.2713,-3.2713,-3.2713,-3.2713,-3.2713,-3.2713,-3.3078,-3.3046,-3.3029,-3.298,-3.2954,-3.2915,-3.2848,-3.2819,-3.2776,-3.2745,-3.2745,-3.2705,-3.2676,-3.2669,-3.2715,-3.2715,-3.2714,-3.2714,-3.2714,-3.3128,-3.3109,-3.3082,-3.3057,-3.2993,-3.2962,-3.2904,-3.285,-3.2819,-3.2804,-3.2763,-3.275,-3.273,-3.2726,-3.272,-3.2775,-3.2775,-3.2775,-3.2775,-3.3169,-3.3155,-3.3115,-3.3077,-3.3034,-3.2979,-3.2942,-3.2886,-3.2825,-3.2802,-3.2786,-3.2774,-3.2772,-3.2754,-3.2749,-3.2742,-3.2802,-3.2802,-3.2802,-3.3195,-3.3174,-3.3156,-3.3101,-3.3045,-3.2997,-3.296,-3.2912,-3.2838,-3.2802,-3.2781,-3.278,-3.276,-3.2757,-3.2723,-3.2717,-3.2704,0,0]}]]